STARLINK-34822, 65086

Orbit data source: Space-Track

STARLINK-34822, 65086 is a payload satellite owned by SpaceX/Seattle (US) in LEO that was launched on Mon, 04 Aug 2025 UTC via an FALCON 9 launch vehicle from the Air Force Eastern Test Range (AFETR). Payload-class satellites include a variety of spacecraft equipped with specific instruments for various scientific and technological missions. These include communications satellites like Starlink; space stations such as the ISS; scientific satellites like the Hubble; Earth observation satellites from companies like Planet Labs, Umbra, and HawkEye 360; GPS; miniature CubeSats for education and research; and military/defense satellites.

Loading next visibility...
Identifier
65086, 2025-167J
Orbit
LEO
Country
Flag of USUS
Related business
Manufacturer
SpaceX/Seattle
Mission
Operational Commercial Communications
Bus & Motor
STARLINK V2MO, Unknown motor
Mass
575 kg wet, ~530 kg dry
Launch date (UTC)
2025-08-04 (9 months ago)
Launch vehicle
FALCON 9
Launch site
Air Force Eastern Test Range (AFETR)
Object type
Payload
Rocket body
Debris
Shape & HBR
Box + 2 Pan, 17.7 m
Radar Cross Section
36.964 m², Large (>1 m²)

Expand to show TLE details & history
Last TLE update: 12 hours ago

TLE from 12 hours ago
0 STARLINK-34822
1 65086U 25167J   26127.20482095  .00010374  00000-0  36200-3 0  9993
2 65086  53.1585 115.2293 0000702  94.3893 265.7188 15.30190675 42439
Epoch: 2026-05-07T04:54Z
TLE epoch observation values (Epoch: 2026-05-07T04:54:56.530Z)
Latitude
Longitude
176.43945°
Altitude
476.178 km
Speed
7.629 km/s
True Right ascension
07h 40m 55s
True Declination
0° 00' 00"
Sunlit
Object was in daylight at epoch
Visualization orbit readout
Latitude
Unknown
Longitude
Unknown
Altitude
Unknown
Speed
Unknown
Apparent Right ascension
Unknown
Apparent Declination
Unknown
Sunlit
N/A
Visualization observer readout
Local Sidereal Time
00:46:31
Azimuth
Unknown
Elevation
Unknown
Doppler factor
Unknown
Orbital elements
Apogee altitude
475.981 km
Perigee altitude
475.018 km
Semi-major axis
6,853.637 km
Eccentricity
0.00007
Inclination
53.1585°
RAAN
115.2293°
Arg. of periapsis
94.3893°
True anomaly
265.71078°
Mean anomaly
265.7188°
Eccentric anomaly
265.71479°
Mean motion
3.82527 °/min
Orbital period
94.11 mins
BSTAR
0.000362
Loading maneuver chart data...
Computing Atmospheric mass density...
Loading historical data...
Loading historical data...
Loading historical data...
Loading historical data...
Loading historical data...
Loading historical data...
Loading historical data...

Documentation

Showing up to 5 results
|